Location: Bernay
(48.6766°N, 2.9386°E)
Time: 09:24:48
(UTC+00:00)

DMSP B5D1-3 - Pass Details

Date: 12 January 2026
Orbit: 759 x 772 km, 98.5° (Epoch: 15 February)

Event Time Altitude Azimuth Distance (km) Brightness Sun altitude
Exits shadow 18:40:20 57° 58° (ENE) 894 4.5 -23.1°
Maximum altitude 18:41:05 65° 102° (ESE) 836 4.4 -23.2°
Drops below altitude 10° 18:46:05 10° 184° (S) 2,288 7.1 -24.0°
Sets 18:48:24 0° 188° (S) 3,211 7.9 -24.4°
